[[{"header":{"parameterUnit":"m.s-1","parameterCategory":1,"la1":30.2991,"la2":30.254,"lo1":-89.0895,"lo2":-89.0444,"dy":0.0017,"dx":0.0017,"nx":28,"ny":28,"refTime":"2025-01-25T03:00:00:Z","depth":0,"parameterNumber":2,"parameterNumberName":"U-component_of_WINDS"},"data":[0,0,0,0,0,0,0,0,0,0,0,0,0,0,0,0,0,0,0,0,0,0,0,0,0,0,0,0,0,0,0,0,0,0,0,0,0,0,0,0,0,0,0,0,0,0,0,0,0,0,0,0,0,0,0,0,0,0,-4.6424,-4.6423,0,-4.6383,-4.6383,-4.6382,-4.6214,-4.621,-4.6206,-4.6203,-4.6164,-4.6166,-4.6169,0,0,0,0,0,0,0,0,0,0,0,0,0,-4.6358,-4.636,-4.6424,-4.6423,-4.6423,-4.6383,-4.6383,-4.6382,-4.6215,-4.621,-4.6205,-4.6201,-4.6163,-4.6166,-4.6169,0,0,0,0,0,0,0,0,0,0,0,0,0,-4.6359,-4.6361,-4.6424,-4.6335,-4.6326,-4.6383,-4.6383,-4.6382,-4.6216,-4.621,-4.6204,-4.6199,-4.6162,-4.6166,-4.617,-4.6311,0,0,-4.6182,-4.6183,0,0,0,0,0,0,0,0,-4.6359,-4.6362,-4.6348,-4.6341,-4.6331,-4.6298,-4.6345,-4.6358,-4.6217,-4.6258,-4.6203,-4.6196,-4.6213,-4.6213,-4.6218,-4.6309,-4.6307,-4.6182,-4.6184,-4.6186,-4.6187,0,0,0,0,0,0,0,-4.636,-4.6363,-4.6408,-4.6348,-4.6338,-4.6297,-4.6291,-4.6347,-4.6269,-4.6254,-4.6242,-4.6239,-4.6208,-4.6215,-4.6216,-4.6306,-4.6182,-4.6185,-4.6188,-4.6189,-4.6507,-4.6513,0,0,0,0,0,0,-4.6372,-4.6364,-4.6409,-4.6406,-4.6331,-4.6303,-4.6296,-4.6315,-4.6268,-4.6255,-4.6244,-4.6231,-4.6211,-4.6211,-4.6214,-4.6371,-4.6186,-4.619,-4.6192,-4.6501,-4.6509,-4.6515,0,0,0,0,0,0,-4.6371,-4.6378,-4.6411,-4.6382,-4.6383,-4.631,-4.6333,-4.6317,-4.6323,-4.626,-4.6246,-4.6265,-4.6206,-4.6208,-4.6287,-4.6368,-4.6191,-4.6195,-4.6494,-4.6503,-4.6512,-4.6691,0,0,0,0,0,0,-4.637,-4.6378,-4.6431,-4.6384,-4.6385,-4.6484,-4.6338,-4.632,-4.633,-4.6313,-4.6276,-4.6265,-4.6202,-4.6282,-4.6291,-4.637,-4.6198,-4.6486,-4.6498,-4.6509,-4.6678,-4.6706,-4.6729,0,0,0,0,0,-4.6368,-4.6484,-4.6434,-4.6441,-4.6449,-4.6489,-4.649,-4.6414,-4.6338,-4.6389,-4.6349,-4.6266,-4.6359,-4.6291,-4.63,-4.6382,-4.6481,-4.6495,-4.6508,-4.6666,-4.67,-4.6729,0,0,0,0,0,0,-4.6544,-4.6477,-4.642,-4.6525,-4.6514,-4.6461,-4.6523,-4.6453,-4.6464,-4.6448,-4.6355,-4.6348,-4.6439,-4.6419,-4.6345,-4.6514,-4.6406,-4.6422,-4.6523,-4.6555,-4.658,-4.6581,-4.6201,0,0,0,0,0,-4.6594,-4.6632,-4.6572,-4.667,-4.6667,-4.6597,-4.6612,-4.6555,-4.654,-4.6535,-4.65,-4.6489,-4.6515,-4.6535,-4.6556,-4.6676,-4.6663,-4.6737,-4.6763,-4.6784,-4.6797,-4.6855,-4.6886,-4.656,-4.656,-4.656,0,0,-4.67,-4.6668,-4.6697,-4.6704,-4.6689,-4.6729,-4.6594,-4.6644,-4.6672,-4.6543,-4.6612,-4.6587,-4.657,-4.6668,-4.671,-4.6654,-4.6885,-4.6802,-4.6819,-4.6821,-4.6873,-4.6904,-4.6931,-4.657,-4.6568,-4.6567,0,0,-4.691,-4.6892,-4.6969,-4.6956,-4.6934,-4.6887,-4.6906,-4.6864,-4.6841,-4.691,-4.6812,-4.6847,-4.6895,-4.6885,-4.6886,-4.7094,-4.7017,-4.7104,-4.7237,-4.7295,-4.732,-4.7342,-4.7412,-4.7439,-4.7119,-4.712,-4.712,0,-4.7044,-4.71,-4.7018,-4.7073,-4.7077,-4.6961,-4.7038,-4.703,-4.7018,-4.7024,-4.6962,-4.7018,-4.6998,-4.7091,-4.7141,-4.7148,-4.7165,-4.7105,-4.7323,-4.7345,-4.7364,-4.7429,-4.7456,-4.713,-4.7129,-4.7128,-4.7127,0,-4.7263,-4.7304,-4.7369,-4.7356,-4.737,-4.7436,-4.7364,-4.7387,-4.733,-4.7289,-4.736,-4.7333,-4.7344,-4.7364,-4.7309,-4.7448,-4.7413,-4.734,-4.7228,-4.7407,-4.7466,-4.7491,-4.7145,-4.7141,-4.7138,-4.7135,0,0,-4.758,-4.7521,-4.7546,-4.7537,-4.7505,-4.7535,-4.7596,-4.7606,-4.7626,-4.7623,-4.7669,-4.7713,-4.7643,-4.7645,-4.7589,-4.7641,-4.7801,-4.7559,-4.7557,-4.7601,-4.7949,-4.8001,-4.8031,-4.7752,-4.7757,-4.7761,-4.7948,0,-4.7776,-4.7874,-4.7802,-4.7912,-4.7947,-4.7838,-4.789,-4.7877,-4.7841,-4.7866,-4.7827,-4.7857,-4.7766,-4.7765,-4.7812,-4.7772,-4.7869,-4.7758,-4.7793,-4.7795,-4.7794,-4.8063,-4.8118,-4.8296,-4.7972,-4.7976,-4.7979,0,-4.8018,-4.8021,-4.8135,-4.8092,-4.8104,-4.8152,-4.8154,-4.8181,-4.8163,-4.8133,-4.8136,-4.8065,-4.8121,-4.8016,-4.8091,-4.8017,-4.8028,-4.8011,-4.8016,-4.8012,-4.7894,-4.8061,-4.8352,-4.8377,-4.8016,-4.8013,-4.801,0,-4.8231,-4.8266,-4.8336,-4.8333,-4.8287,-4.8323,-4.8306,-4.8282,-4.8292,-4.8295,-4.83,-4.8312,-4.8317,-4.8327,-4.8262,-4.8192,-4.8344,-4.8234,-4.8319,-4.8321,-4.8351,-4.8349,-4.8643,-4.8369,-4.8368,-4.8368,-4.8367,0,-4.8455,-4.8527,-4.843,-4.8473,-4.8551,-4.8469,-4.8548,-4.852,-4.85,-4.8535,-4.8445,-4.848,-4.8394,-4.8421,-4.8371,-4.8438,-4.8443,-4.8419,-4.8404,-4.8424,-4.8426,-4.8425,-4.8409,-4.8375,-4.8373,-4.8372,-4.8371,0,-4.8703,-4.8642,-4.8711,-4.8661,-4.8651,-4.871,-4.8667,-4.8705,-4.8664,-4.871,-4.8716,-4.8652,-4.8679,-4.8616,-4.8635,-4.8601,-4.8696,-4.8664,-4.8701,-4.8689,-4.8775,-4.8766,-4.9074,-4.9108,-4.8818,-4.8821,-4.8823,0,-4.8847,-4.8899,-4.8855,-4.8871,-4.8858,-4.8886,-4.8895,-4.8818,-4.8831,-4.8814,-4.8854,-4.8873,-4.8883,-4.8932,-4.8887,-4.89,-4.8864,-4.8972,-4.8865,-4.8883,-4.8859,-4.8854,-4.8857,-4.8992,-4.8995,-4.8998,-4.9,0,-4.9106,-4.9073,-4.9089,-4.9094,-4.9107,-4.9108,-4.9103,-4.9122,-4.9039,-4.9059,-4.9084,-4.9093,-4.911,-4.9129,-4.9133,-4.9115,-4.9044,-4.9035,-4.9054,-4.9072,-4.9089,-4.9075,-4.8754,-4.9027,-4.9024,-4.9022,-4.9021,-4.902,-4.9302,-4.9342,-4.9316,-4.9336,-4.9324,-4.9321,-4.9352,-4.9315,-4.9334,-4.934,-4.9296,-4.933,-4.931,-4.9307,-4.9297,-4.9323,-4.9274,-4.9304,-4.931,-4.9317,-4.9328,-4.909,-4.9324,-4.9324,-4.9323,-4.9322,-4.9322,0,-4.9552,-4.953,-4.9549,-4.9543,-4.9559,-4.9491,-4.9482,-4.9499,-4.953,-4.9517,-4.9529,-4.9557,-4.9576,-4.9533,-4.9545,-4.9573,-4.9541,-4.9579,-4.9572,-4.9569,-4.9374,-4.9353,-4.9604,-4.9604,-4.9604,-4.9604,-4.9604,-4.9604,-4.9683,-4.9745,-4.9709,-4.9765,-4.9742,-4.9773,-4.9773,-4.977,-4.9758,-4.9793,-4.9807,-4.9779,-4.9754,-4.9763,-4.9776,-4.9764,-4.977,-4.9818,-4.9793,-4.9611,-4.9583,-4.9556,-4.9536,-4.9822,-4.9822,-4.9985,-4.9986,-4.9987]},{"header":{"parameterUnit":"m.s-1","parameterCategory":1,"la1":30.2991,"la2":30.254,"lo1":-89.0895,"lo2":-89.0444,"dy":0.0017,"dx":0.0017,"nx":28,"ny":28,"refTime":"2025-01-25T03:00:00:Z","depth":0,"parameterNumber":3,"parameterNumberName":"V-component_of_WINDS"},"data":[0,0,0,0,0,0,0,0,0,0,0,0,0,0,0,0,0,0,0,0,0,0,0,0,0,0,0,0,0,0,0,0,0,0,0,0,0,0,0,0,0,0,0,0,0,0,0,0,0,0,0,0,0,0,0,0,0,0,0.1249,0.1249,0,0.1213,0.1213,0.1212,0.1167,0.1166,0.1165,0.1165,0.1124,0.1124,0.1124,0,0,0,0,0,0,0,0,0,0,0,0,0,0.1278,0.1278,0.1249,0.1249,0.1248,0.1213,0.1213,0.1212,0.1167,0.1166,0.1165,0.1164,0.1125,0.1124,0.1124,0,0,0,0,0,0,0,0,0,0,0,0,0,0.1256,0.1278,0.1249,0.1222,0.1219,0.1213,0.1213,0.1212,0.1167,0.1166,0.1165,0.1164,0.1125,0.1124,0.1124,0.1141,0,0,0.1122,0.1121,0,0,0,0,0,0,0,0,0.1257,0.1255,0.1226,0.1224,0.122,0.1193,0.1208,0.1188,0.1167,0.1187,0.1165,0.1163,0.1148,0.1145,0.1141,0.1139,0.1138,0.1122,0.1121,0.1121,0.1121,0,0,0,0,0,0,0,0.1259,0.1256,0.1235,0.1226,0.1222,0.1211,0.1206,0.1204,0.1174,0.1185,0.1181,0.1178,0.1146,0.1142,0.114,0.1137,0.1122,0.1121,0.1121,0.112,0.1152,0.1153,0,0,0,0,0,0,0.1265,0.1258,0.1236,0.1234,0.1237,0.1211,0.1206,0.1203,0.1174,0.1168,0.1179,0.1176,0.1143,0.114,0.1138,0.116,0.1121,0.112,0.112,0.1151,0.1152,0.1154,0,0,0,0,0,0,0.1266,0.1263,0.1237,0.1245,0.1241,0.1212,0.1209,0.1203,0.1198,0.1169,0.1163,0.118,0.1142,0.1139,0.1142,0.1158,0.112,0.112,0.1149,0.1151,0.1153,0.1201,0,0,0,0,0,0,0.1267,0.1264,0.127,0.1245,0.1241,0.1242,0.1209,0.1203,0.1198,0.1194,0.1169,0.1163,0.1141,0.1143,0.1141,0.1156,0.1119,0.1148,0.115,0.1152,0.1198,0.1205,0.121,0,0,0,0,0,0.1268,0.1284,0.1271,0.1269,0.1248,0.1243,0.124,0.1215,0.1199,0.1206,0.1188,0.1164,0.1156,0.1144,0.1141,0.1156,0.1147,0.115,0.1152,0.1196,0.1203,0.121,0,0,0,0,0,0,0.1309,0.128,0.1265,0.1274,0.1262,0.1236,0.1243,0.1224,0.1215,0.1211,0.118,0.1174,0.1182,0.1169,0.1156,0.1174,0.1148,0.115,0.1182,0.1189,0.1195,0.1199,0.1119,0,0,0,0,0,0.132,0.1319,0.1293,0.1303,0.1298,0.1272,0.1268,0.1251,0.1236,0.123,0.1212,0.1199,0.1193,0.119,0.1183,0.1196,0.1191,0.1205,0.1211,0.1216,0.1219,0.1228,0.1235,0.1162,0.1162,0.1162,0,0,0.1341,0.1325,0.1326,0.1311,0.13,0.13,0.1268,0.1268,0.1268,0.123,0.1233,0.1219,0.1202,0.1211,0.1214,0.1201,0.1238,0.122,0.1224,0.1224,0.1232,0.1238,0.1245,0.1164,0.1164,0.1164,0,0,0.138,0.1367,0.1375,0.1365,0.1349,0.1332,0.1335,0.1312,0.1302,0.1305,0.1278,0.1277,0.1267,0.1257,0.1251,0.129,0.1269,0.1288,0.1319,0.1329,0.1334,0.1339,0.1356,0.1362,0.1291,0.1291,0.1291,0,0.1408,0.1408,0.1382,0.1386,0.1381,0.1349,0.1358,0.1349,0.1331,0.1328,0.1314,0.1304,0.1289,0.1297,0.1308,0.1302,0.1305,0.1291,0.1336,0.134,0.1345,0.136,0.1366,0.1293,0.1293,0.1293,0.1293,0,0.1444,0.1445,0.1453,0.144,0.1436,0.1442,0.1418,0.1417,0.14,0.1385,0.1389,0.1372,0.1362,0.1362,0.1344,0.1369,0.1361,0.1342,0.1316,0.1355,0.1369,0.1374,0.1297,0.1296,0.1295,0.1295,0,0,0.1507,0.1482,0.1485,0.148,0.1462,0.1461,0.1467,0.1459,0.1461,0.1449,0.1455,0.1449,0.1432,0.1425,0.1406,0.1414,0.1449,0.1393,0.1392,0.1406,0.1478,0.1495,0.1502,0.1435,0.1436,0.1437,0.1481,0,0.1544,0.1554,0.1532,0.1547,0.1549,0.1519,0.1524,0.1514,0.15,0.1499,0.1484,0.1482,0.1457,0.1454,0.146,0.1444,0.1464,0.144,0.1441,0.1441,0.1448,0.1509,0.1526,0.1568,0.1486,0.1487,0.1487,0,0.1588,0.1583,0.1599,0.1583,0.1582,0.1588,0.1581,0.158,0.1568,0.1558,0.1552,0.1531,0.1536,0.151,0.1518,0.1503,0.1501,0.1494,0.1495,0.1495,0.1468,0.1513,0.158,0.1588,0.1495,0.1494,0.1494,0,0.1637,0.1633,0.1643,0.1639,0.1619,0.1624,0.1616,0.1603,0.1601,0.1595,0.1594,0.1587,0.1584,0.158,0.1559,0.1542,0.157,0.1542,0.1563,0.1564,0.1571,0.1571,0.1641,0.1567,0.1567,0.1567,0.1566,0,0.1682,0.1693,0.1665,0.1671,0.1684,0.1659,0.1672,0.166,0.165,0.1654,0.1627,0.1631,0.1601,0.1602,0.1585,0.1596,0.1594,0.1587,0.1582,0.159,0.1592,0.159,0.1588,0.1568,0.1568,0.1567,0.1567,0,0.1738,0.1719,0.1728,0.171,0.1706,0.1716,0.1701,0.1706,0.1692,0.1697,0.1697,0.1674,0.1675,0.1653,0.1647,0.1636,0.1655,0.1644,0.166,0.1658,0.1681,0.168,0.1754,0.1764,0.1681,0.1682,0.1683,0,0.1768,0.1777,0.1761,0.1763,0.1757,0.1759,0.1758,0.1735,0.1735,0.1724,0.1731,0.1729,0.1727,0.1729,0.1712,0.1709,0.1699,0.1726,0.1698,0.1708,0.1703,0.1704,0.1706,0.1732,0.1733,0.1734,0.1734,0,0.1826,0.1818,0.1818,0.1816,0.1816,0.1813,0.1807,0.181,0.1784,0.1786,0.1787,0.1786,0.1783,0.1782,0.1777,0.1768,0.1748,0.1743,0.1748,0.1758,0.1768,0.1766,0.1678,0.1742,0.1741,0.174,0.174,0.174,0.1872,0.188,0.1872,0.1873,0.1868,0.1864,0.187,0.1858,0.1859,0.1856,0.1841,0.1846,0.1836,0.1826,0.182,0.1824,0.181,0.1817,0.1819,0.1822,0.1828,0.1766,0.1822,0.1822,0.1821,0.1821,0.1821,0,0.1932,0.1925,0.1927,0.1923,0.1925,0.1907,0.1901,0.1904,0.1909,0.1902,0.1901,0.1904,0.1905,0.1889,0.1887,0.1894,0.1885,0.1894,0.1895,0.1894,0.1838,0.1835,0.1902,0.1902,0.1902,0.1902,0.1902,0.1902,0.1963,0.1976,0.1967,0.1978,0.1971,0.1977,0.1976,0.1973,0.1968,0.1973,0.1974,0.1964,0.1954,0.1953,0.1953,0.1948,0.195,0.1964,0.1956,0.1905,0.1897,0.189,0.1887,0.1963,0.1964,0.2012,0.2012,0.2012]}]]